Regional Weather Roundup
Issued by NWS

Home | Current Version | Previous Version | Text Only | Print | Product List | Glossary On
Versions: 1 2 3 4 5 6 7 8 9 10 11 12 13 14 15 16 17 18 19 20 21 22 23 24 25 26 27 28 29 30 31 32 33 34 35 36 37 38 39 40 41 42 43 44 45 46 47 48 49 50
000
ASUS43 KLMK 110310
RWRKY
KENTUCKY REGIONAL WEATHER ROUNDUP
NATIONAL WEATHER SERVICE LOUISVILLE KY
1000 PM EST SAT DEC 10 2016

NOTE "FAIR" INDICATES FEW OR NO CLOUDS BELOW 12,000 FEET
WITH NO SIGNIFICANT WEATHER AND/OR OBSTRUCTIONS TO VISIBILITY.

KYZ001>023-026-027-061>063-070>075-110400-
WESTERN AND SOUTH CENTRAL KENTUCKY

CITY           SKY/WX    TMP DP  RH WIND       PRES   REMARKS
PADUCAH        CLOUDY    37  14  38 VRB5      30.34F WCI  33
HENDERSON      CLOUDY    32  16  51 SE8       30.36F WCI  25
OWENSBORO      CLOUDY    31  19  61 SE15      30.37F WCI  20
HOPKINSVILLE   CLOUDY    29  17  61 SE6       30.39F WCI  23
BOWLING GREEN  CLOUDY    27  17  66 CALM      30.43S
GLASGOW        CLOUDY    25  19  78 E5        30.40F WCI  19
$$

KYZ024-025-028>034-038-045-046-053-110400-
NORTH CENTRAL KENTUCKY

CITY           SKY/WX    TMP DP  RH WIND       PRES   REMARKS
LOUISVILLE/SDF CLOUDY    31  15  52 SE8       30.41F WCI  23
LOUISVILLE/LOU CLOUDY    31  16  54 SE5       30.41F WCI  26
FORT KNOX      CLOUDY    28  16  59 SE6       30.37F WCI  22
$$

KYZ035>037-039>044-047>052-055>060-089>105-110400-
NORTHEAST KENTUCKY

CITY           SKY/WX    TMP DP  RH WIND       PRES   REMARKS
LEXINGTON      CLOUDY    28  16  60 SE5       30.41F WCI  23
COVINGTON      CLOUDY    28  19  69 S6        30.39F WCI  22
FRANKFORT      CLOUDY    29  16  58 SE3       30.40F
$$

KYZ054-064>069-076>088-106>120-110400-
SOUTHEAST KENTUCKY

CITY           SKY/WX    TMP DP  RH WIND       PRES   REMARKS
JACKSON        CLOUDY    27  13  55 SE3       30.40F
LONDON         PTCLDY    28  15  58 CALM      30.40F
SOMERSET       CLOUDY    27  18  69 CALM      30.42F
MIDDLESBORO    PTCLDY    26  21  80 CALM      30.42F
MONTICELLO     CLOUDY    21  17  84 W8        30.43F WCI  11
$$




USA.gov is the U.S. government's official web portal to all federal, state and local government web resources and services.